[[{"header":{"parameterUnit":"m.s-1","parameterCategory":1,"la1":30.2991,"la2":30.254,"lo1":-89.0895,"lo2":-89.0444,"dy":0.0017,"dx":0.0017,"nx":28,"ny":28,"refTime":"2025-06-17T03:00:00:Z","depth":0,"parameterNumber":2,"parameterNumberName":"U-component_of_WINDS"},"data":[0,0,0,0,0,0,0,0,0,0,0,0,0,0,0,0,0,0,0,0,0,0,0,0,0,0,0,0,0,0,0,0,0,0,0,0,0,0,0,0,0,0,0,0,0,0,0,0,0,0,0,0,0,0,0,0,0,0,-1.4533,-1.4531,0,-1.4386,-1.4384,-1.4383,-1.4304,-1.4304,-1.4304,-1.4304,-1.4148,-1.4144,-1.414,0,0,0,0,0,0,0,0,0,0,0,0,0,-1.474,-1.4737,-1.4533,-1.4531,-1.4529,-1.4386,-1.4384,-1.4382,-1.4304,-1.4304,-1.4304,-1.4304,-1.415,-1.4145,-1.414,0,0,0,0,0,0,0,0,0,0,0,0,0,-1.4628,-1.4736,-1.4533,-1.4473,-1.4467,-1.4387,-1.4384,-1.4382,-1.4304,-1.4304,-1.4304,-1.4304,-1.4151,-1.4145,-1.4139,-1.4107,0,0,-1.4121,-1.4118,0,0,0,0,0,0,0,0,-1.4634,-1.462,-1.4484,-1.4477,-1.447,-1.4363,-1.44,-1.4289,-1.4304,-1.4366,-1.4304,-1.4304,-1.422,-1.4208,-1.4181,-1.4099,-1.4093,-1.412,-1.4117,-1.4114,-1.4113,0,0,0,0,0,0,0,-1.4642,-1.4626,-1.4475,-1.4482,-1.4473,-1.4452,-1.4436,-1.4379,-1.4296,-1.436,-1.4354,-1.4338,-1.4216,-1.4187,-1.4177,-1.409,-1.4121,-1.4115,-1.4112,-1.4109,-1.3972,-1.3972,0,0,0,0,0,0,-1.466,-1.4633,-1.4479,-1.447,-1.4553,-1.4448,-1.443,-1.4398,-1.4296,-1.428,-1.4339,-1.4335,-1.4197,-1.4184,-1.4171,-1.4124,-1.4114,-1.4109,-1.4105,-1.3972,-1.3972,-1.3972,0,0,0,0,0,0,-1.4665,-1.4647,-1.4485,-1.455,-1.4528,-1.4445,-1.4409,-1.4395,-1.4366,-1.428,-1.4264,-1.4325,-1.4196,-1.4179,-1.4123,-1.4117,-1.4106,-1.41,-1.3972,-1.3972,-1.3972,-1.4031,0,0,0,0,0,0,-1.4671,-1.4649,-1.4638,-1.455,-1.4525,-1.4442,-1.4409,-1.4392,-1.4356,-1.435,-1.4262,-1.4248,-1.4195,-1.4132,-1.4117,-1.4109,-1.4096,-1.3972,-1.3972,-1.3972,-1.403,-1.4033,-1.4037,0,0,0,0,0,-1.4679,-1.4659,-1.4637,-1.4619,-1.4508,-1.4442,-1.4427,-1.4368,-1.4356,-1.4342,-1.4287,-1.425,-1.4121,-1.4127,-1.4109,-1.4099,-1.3972,-1.3972,-1.3972,-1.4028,-1.4033,-1.4037,0,0,0,0,0,0,-1.4747,-1.4647,-1.4621,-1.4574,-1.4517,-1.4429,-1.441,-1.4375,-1.432,-1.4316,-1.4244,-1.4225,-1.4175,-1.4131,-1.414,-1.4061,-1.4042,-1.4039,-1.4091,-1.4095,-1.4099,-1.4109,-1.4091,0,0,0,0,0,-1.4757,-1.4713,-1.4627,-1.4593,-1.4566,-1.4493,-1.4462,-1.4422,-1.4359,-1.4335,-1.4275,-1.4214,-1.4159,-1.4125,-1.407,-1.4023,-1.4002,-1.4007,-1.4011,-1.4014,-1.4012,-1.3981,-1.3982,-1.3971,-1.3971,-1.3971,0,0,-1.4775,-1.4715,-1.4692,-1.4605,-1.4556,-1.4511,-1.4473,-1.4427,-1.4391,-1.4327,-1.427,-1.4224,-1.4152,-1.41,-1.4073,-1.4062,-1.401,-1.4014,-1.4018,-1.4013,-1.3981,-1.3983,-1.3984,-1.3971,-1.3971,-1.3971,0,0,-1.4786,-1.4738,-1.4703,-1.4655,-1.4583,-1.4534,-1.4526,-1.4443,-1.441,-1.4352,-1.4303,-1.4259,-1.4167,-1.4116,-1.4079,-1.407,-1.4034,-1.4054,-1.4073,-1.4044,-1.4045,-1.4045,-1.404,-1.404,-1.4052,-1.4052,-1.4052,0,-1.4818,-1.4749,-1.4689,-1.4645,-1.4607,-1.4549,-1.4512,-1.4468,-1.438,-1.4355,-1.4344,-1.4226,-1.4173,-1.4108,-1.4106,-1.4078,-1.4064,-1.4063,-1.405,-1.405,-1.4049,-1.4044,-1.4042,-1.4055,-1.4055,-1.4054,-1.4054,0,-1.4791,-1.4744,-1.4724,-1.4643,-1.4603,-1.4563,-1.4495,-1.4462,-1.4425,-1.4377,-1.4318,-1.4252,-1.4182,-1.4164,-1.4127,-1.4093,-1.4087,-1.4064,-1.4044,-1.4054,-1.4048,-1.4045,-1.4059,-1.4058,-1.4057,-1.4057,0,0,-1.484,-1.4726,-1.472,-1.4681,-1.4597,-1.4558,-1.4514,-1.4448,-1.4419,-1.4361,-1.4321,-1.4244,-1.4222,-1.418,-1.4136,-1.4112,-1.4107,-1.4091,-1.4088,-1.4095,-1.4062,-1.408,-1.4078,-1.4083,-1.4082,-1.4082,-1.4068,0,-1.4838,-1.4758,-1.4703,-1.4644,-1.4598,-1.4542,-1.4503,-1.4446,-1.44,-1.4353,-1.4301,-1.4247,-1.4223,-1.4197,-1.417,-1.4113,-1.4099,-1.4114,-1.4043,-1.4041,-1.4062,-1.4075,-1.4093,-1.4084,-1.4065,-1.4065,-1.4064,0,-1.4824,-1.4769,-1.4706,-1.4625,-1.4604,-1.4571,-1.4504,-1.4461,-1.4394,-1.4362,-1.4315,-1.4271,-1.422,-1.4205,-1.4133,-1.4144,-1.4112,-1.4079,-1.4077,-1.4067,-1.4053,-1.4064,-1.4079,-1.4078,-1.406,-1.4061,-1.4061,0,-1.4864,-1.4774,-1.4724,-1.4693,-1.4598,-1.4576,-1.4535,-1.4468,-1.4431,-1.4372,-1.4347,-1.4283,-1.4248,-1.4198,-1.4137,-1.4132,-1.407,-1.4051,-1.404,-1.4042,-1.4029,-1.403,-1.4038,-1.4011,-1.4011,-1.4011,-1.4011,0,-1.4866,-1.4829,-1.4741,-1.471,-1.4667,-1.4602,-1.4561,-1.4515,-1.4456,-1.4413,-1.436,-1.4321,-1.4244,-1.4195,-1.4147,-1.4093,-1.4078,-1.4049,-1.4036,-1.4053,-1.4056,-1.4029,-1.4028,-1.401,-1.401,-1.4011,-1.4011,0,-1.4903,-1.4842,-1.4784,-1.4699,-1.4677,-1.4648,-1.4575,-1.4541,-1.4493,-1.444,-1.4424,-1.4347,-1.4286,-1.4221,-1.4138,-1.4106,-1.4054,-1.4037,-1.4077,-1.407,-1.4063,-1.4064,-1.4052,-1.4046,-1.4025,-1.4026,-1.4026,0,-1.4907,-1.4878,-1.479,-1.4759,-1.472,-1.467,-1.4632,-1.4567,-1.453,-1.4451,-1.4427,-1.4363,-1.4309,-1.4214,-1.415,-1.4086,-1.4065,-1.4066,-1.4055,-1.4073,-1.4063,-1.4065,-1.4061,-1.4069,-1.4069,-1.407,-1.407,0,-1.4921,-1.4893,-1.4841,-1.4779,-1.4736,-1.4683,-1.4628,-1.4605,-1.4529,-1.4489,-1.4428,-1.4386,-1.4302,-1.4238,-1.4166,-1.4121,-1.4082,-1.4074,-1.4068,-1.4084,-1.4108,-1.4093,-1.4085,-1.4074,-1.4074,-1.4074,-1.4073,-1.4073,-1.494,-1.4911,-1.4845,-1.4789,-1.4741,-1.4691,-1.4656,-1.4603,-1.4551,-1.4479,-1.4443,-1.4382,-1.4314,-1.4213,-1.417,-1.4119,-1.4107,-1.4099,-1.4096,-1.4095,-1.4099,-1.4118,-1.4106,-1.4106,-1.4106,-1.4105,-1.4105,0,-1.495,-1.4905,-1.4854,-1.478,-1.4735,-1.4705,-1.4642,-1.4606,-1.4553,-1.4494,-1.4442,-1.437,-1.4308,-1.4239,-1.4172,-1.4145,-1.4125,-1.4129,-1.413,-1.412,-1.4114,-1.4125,-1.4146,-1.4146,-1.4146,-1.4146,-1.4146,-1.4146,-1.495,-1.4899,-1.4862,-1.4786,-1.474,-1.468,-1.4647,-1.46,-1.4552,-1.4476,-1.4424,-1.438,-1.4316,-1.4244,-1.4185,-1.4166,-1.4143,-1.4152,-1.4128,-1.4124,-1.412,-1.4117,-1.4127,-1.4148,-1.4148,-1.4138,-1.4138,-1.4138]},{"header":{"parameterUnit":"m.s-1","parameterCategory":1,"la1":30.2991,"la2":30.254,"lo1":-89.0895,"lo2":-89.0444,"dy":0.0017,"dx":0.0017,"nx":28,"ny":28,"refTime":"2025-06-17T03:00:00:Z","depth":0,"parameterNumber":3,"parameterNumberName":"V-component_of_WINDS"},"data":[0,0,0,0,0,0,0,0,0,0,0,0,0,0,0,0,0,0,0,0,0,0,0,0,0,0,0,0,0,0,0,0,0,0,0,0,0,0,0,0,0,0,0,0,0,0,0,0,0,0,0,0,0,0,0,0,0,0,2.9998,2.9999,0,3.0085,3.0086,3.0086,3.0028,3.0025,3.0023,3.002,3.0105,3.011,3.0115,0,0,0,0,0,0,0,0,0,0,0,0,0,2.9781,2.9785,2.9998,2.9999,3.0,3.0084,3.0086,3.0087,3.0029,3.0025,3.0022,3.0019,3.0104,3.0109,3.0115,0,0,0,0,0,0,0,0,0,0,0,0,0,2.9872,2.9786,2.9998,2.9981,2.9981,3.0084,3.0086,3.0087,3.0029,3.0025,3.0021,3.0018,3.0102,3.0109,3.0116,3.0239,0,0,3.0138,3.0141,0,0,0,0,0,0,0,0,2.9867,2.988,2.9983,2.9983,2.9982,3.0042,3.004,3.0138,3.003,3.0011,3.002,3.0016,3.0087,3.0095,3.012,3.0243,3.0247,3.0138,3.0143,3.0146,3.0148,0,0,0,0,0,0,0,2.9861,2.9876,3.0032,2.9984,2.9984,2.9969,2.9978,3.0058,3.007,3.0012,3.0008,3.0019,3.0086,3.0113,3.0122,3.0248,3.0138,3.0144,3.0149,3.0152,3.0479,3.0483,0,0,0,0,0,0,2.9856,2.9871,3.0029,3.0035,2.9914,2.9976,2.9986,3.0026,3.0069,3.0072,3.0023,3.0016,3.0103,3.0113,3.0124,3.0274,3.0146,3.0152,3.0156,3.0475,3.048,3.0485,0,0,0,0,0,0,2.9852,2.9871,3.0026,2.9952,2.997,2.9984,3.003,3.003,3.0057,3.0077,3.0078,3.0049,3.01,3.0114,3.0212,3.0276,3.0155,3.0162,3.047,3.0477,3.0483,3.0573,0,0,0,0,0,0,2.9846,2.9869,2.9917,2.9953,2.9975,3.0113,3.0034,3.0035,3.007,3.0063,3.0102,3.0104,3.0098,3.0202,3.0219,3.0284,3.0167,3.0464,3.0473,3.0481,3.0564,3.0582,3.0597,0,0,0,0,0,2.9838,2.9937,2.992,2.9939,3.0034,3.0117,3.0129,3.0121,3.0076,3.0123,3.0136,3.0103,3.0266,3.0212,3.0231,3.0299,3.046,3.047,3.048,3.0557,3.0578,3.0596,0,0,0,0,0,0,2.9906,2.9942,2.9922,3.0037,3.0075,3.0107,3.0167,3.0144,3.0194,3.0185,3.0172,3.0181,3.0284,3.03,3.024,3.0422,3.0356,3.037,3.0408,3.0428,3.0444,3.0439,3.0173,0,0,0,0,0,2.9935,3.0,3.0027,3.0125,3.0145,3.0153,3.0188,3.0179,3.0217,3.0233,3.0252,3.029,3.035,3.0389,3.0445,3.0566,3.0574,3.0622,3.0638,3.0651,3.0664,3.0732,3.0754,3.0518,3.0518,3.0518,0,0,2.9994,3.0021,3.0063,3.0139,3.0168,3.0235,3.0167,3.024,3.029,3.0243,3.0338,3.0354,3.0395,3.0505,3.0555,3.0522,3.0731,3.0664,3.0674,3.068,3.0745,3.0767,3.0787,3.0525,3.0523,3.0522,0,0,3.0137,3.0164,3.025,3.028,3.0325,3.033,3.035,3.0387,3.0396,3.0491,3.0459,3.0517,3.0619,3.0651,3.068,3.0838,3.081,3.0856,3.0942,3.1008,3.1027,3.1043,3.1102,3.1123,3.0868,3.0869,3.0869,0,3.0205,3.0307,3.0297,3.0375,3.041,3.0372,3.046,3.0489,3.0549,3.0574,3.0536,3.0667,3.0691,3.081,3.0849,3.0873,3.0897,3.0852,3.1025,3.1041,3.1056,3.1112,3.1134,3.0874,3.0874,3.0873,3.0872,0,3.0389,3.046,3.0524,3.0586,3.0628,3.071,3.0713,3.0756,3.0744,3.0753,3.0851,3.0879,3.0941,3.0968,3.0955,3.1086,3.1065,3.1026,3.096,3.1085,3.1137,3.1158,3.0882,3.088,3.0879,3.0877,0,0,3.0579,3.0635,3.0659,3.0688,3.0734,3.0789,3.0869,3.0932,3.0971,3.1013,3.1081,3.117,3.1135,3.1169,3.1159,3.1217,3.1343,3.1172,3.1172,3.1205,3.1492,3.1523,3.1548,3.1324,3.1328,3.1331,3.1489,0,3.0727,3.0869,3.0864,3.0997,3.1063,3.1029,3.1099,3.1136,3.1146,3.1203,3.1214,3.1279,3.1227,3.1247,3.1302,3.1316,3.1401,3.1304,3.1389,3.1392,3.1383,3.1575,3.1607,3.1755,3.1509,3.1513,3.1515,0,3.0919,3.0971,3.1112,3.1151,3.1178,3.1242,3.13,3.1355,3.1396,3.1399,3.1438,3.142,3.1502,3.1432,3.1545,3.148,3.1513,3.1525,3.1531,3.1541,3.1463,3.1592,3.1801,3.1825,3.1547,3.1544,3.1542,0,3.1047,3.1151,3.125,3.1275,3.1322,3.1368,3.139,3.1427,3.1465,3.1516,3.1541,3.1599,3.1632,3.1677,3.1675,3.1624,3.1791,3.172,3.1798,3.1798,3.1836,3.1834,3.2057,3.1853,3.1853,3.1853,3.1852,0,3.1215,3.1303,3.1308,3.1369,3.1467,3.1459,3.1556,3.1573,3.1606,3.167,3.1641,3.1701,3.1694,3.1754,3.1753,3.1849,3.1862,3.1868,3.1868,3.1873,3.1873,3.1897,3.1887,3.1859,3.1857,3.1856,3.1855,0,3.1375,3.1382,3.1488,3.1525,3.1536,3.1607,3.1638,3.1696,3.1704,3.1785,3.1804,3.1817,3.1886,3.1889,3.1968,3.1967,3.2085,3.207,3.2072,3.207,3.2149,3.2143,3.2397,3.2431,3.2203,3.2205,3.2206,0,3.1483,3.1551,3.1596,3.1637,3.1663,3.1729,3.1769,3.1764,3.1807,3.186,3.1912,3.1979,3.2033,3.2146,3.2162,3.2223,3.2212,3.2297,3.2221,3.2225,3.2217,3.2215,3.2222,3.2313,3.2315,3.2317,3.2319,0,3.1675,3.1676,3.1736,3.1798,3.1848,3.1896,3.194,3.1975,3.1975,3.2025,3.2097,3.2139,3.2222,3.229,3.2349,3.237,3.2346,3.2342,3.2364,3.2372,3.2371,3.2376,3.2116,3.2337,3.2335,3.2334,3.2333,3.2332,3.1815,3.1874,3.1917,3.1985,3.2018,3.2061,3.2119,3.2135,3.2195,3.2264,3.2256,3.2337,3.2377,3.2455,3.2481,3.2544,3.2515,3.2546,3.2554,3.2562,3.2573,3.2359,3.2555,3.2554,3.2554,3.2553,3.2553,0,3.2008,3.2034,3.2097,3.2162,3.2216,3.2188,3.2237,3.2284,3.2356,3.2396,3.2451,3.2535,3.2601,3.2623,3.2687,3.2733,3.2724,3.2751,3.2749,3.2755,3.2593,3.257,3.2758,3.2758,3.2758,3.2757,3.2757,3.2757,3.2116,3.2216,3.2222,3.2339,3.2364,3.2444,3.2475,3.2515,3.2547,3.2643,3.2699,3.2713,3.2746,3.2813,3.2873,3.2877,3.2903,3.2936,3.2936,3.2786,3.2765,3.2746,3.2724,3.2941,3.2941,3.3092,3.3094,3.3095]}]]